TimePDT,TemperatureF,Dew PointF,Humidity,Sea Level PressureIn,VisibilityMPH,Wind Direction,Wind SpeedMPH,Gust SpeedMPH,PrecipitationIn,Events,Conditions,WindDirDegrees,DateUTC
12:29 AM,48.2,44.6,87,29.56,10.0,South,8.1,-,N/A,,Mostly Cloudy,170,2012-03-28 07:29:00
12:55 AM,47.3,44.1,88,29.58,10.0,West,10.4,-,0.00,,Partly Cloudy,260,2012-03-28 07:55:00
1:55 AM,48.6,41.0,75,29.59,10.0,SW,18.4,23.0,N/A,,Scattered Clouds,220,2012-03-28 08:55:00
2:55 AM,49.5,39.0,67,29.62,10.0,South,18.4,-,N/A,,Mostly Cloudy,190,2012-03-28 09:55:00
3:55 AM,49.5,36.5,61,29.62,10.0,SSW,15.0,-,N/A,,Mostly Cloudy,200,2012-03-28 10:55:00
4:55 AM,48.6,36.3,63,29.63,10.0,South,13.8,-,N/A,,Mostly Cloudy,180,2012-03-28 11:55:00
5:55 AM,47.7,35.1,62,29.65,10.0,South,13.8,-,N/A,,Partly Cloudy,180,2012-03-28 12:55:00
6:55 AM,43.9,35.8,73,29.67,10.0,South,6.9,-,N/A,,Mostly Cloudy,180,2012-03-28 13:55:00
7:55 AM,47.1,36.7,67,29.68,10.0,South,5.8,-,N/A,,Partly Cloudy,180,2012-03-28 14:55:00
8:55 AM,50.0,36.3,59,29.69,10.0,South,16.1,25.3,N/A,,Mostly Cloudy,190,2012-03-28 15:55:00
9:00 AM,50.0,37.4,62,29.68,10.0,SSW,18.4,28.8,N/A,Rain,Light Rain,200,2012-03-28 16:00:00
9:11 AM,50.0,37.4,62,29.69,10.0,South,12.7,-,N/A,,Overcast,190,2012-03-28 16:11:00
9:55 AM,50.4,37.6,62,29.70,10.0,South,23.0,34.5,0.00,,Scattered Clouds,190,2012-03-28 16:55:00
10:55 AM,51.1,37.0,59,29.72,10.0,South,20.7,28.8,N/A,,Overcast,170,2012-03-28 17:55:00
11:55 AM,50.5,37.8,62,29.73,10.0,South,18.4,26.5,0.00,Rain,Light Rain,190,2012-03-28 18:55:00
12:21 PM,48.2,42.8,82,29.75,8.0,SSW,12.7,25.3,N/A,,Overcast,210,2012-03-28 19:21:00
12:38 PM,46.4,41.0,81,29.75,9.0,SSW,16.1,25.3,N/A,Rain,Light Rain,200,2012-03-28 19:38:00
12:47 PM,46.4,42.8,87,29.75,10.0,SSW,16.1,24.2,N/A,,Overcast,200,2012-03-28 19:47:00
12:50 PM,46.4,42.8,87,29.75,10.0,SSW,15.0,24.2,N/A,Rain,Light Rain,210,2012-03-28 19:50:00
12:55 PM,46.9,42.8,86,29.76,10.0,SSW,16.1,20.7,0.01,Rain,Light Rain,200,2012-03-28 19:55:00
1:55 PM,47.5,43.2,85,29.78,10.0,South,16.1,-,0.02,Rain,Light Rain,190,2012-03-28 20:55:00
2:08 PM,48.2,44.6,87,29.78,10.0,South,12.7,-,N/A,,Mostly Cloudy,190,2012-03-28 21:08:00
2:55 PM,49.5,43.2,79,29.79,10.0,South,12.7,20.7,0.00,,Overcast,190,2012-03-28 21:55:00
2:57 PM,50.0,42.8,76,29.79,10.0,South,13.8,-,N/A,Rain,Light Rain,180,2012-03-28 21:57:00
3:18 PM,48.2,42.8,82,29.79,10.0,South,11.5,-,N/A,Rain,Light Rain,190,2012-03-28 22:18:00
3:20 PM,48.2,42.8,82,29.79,10.0,South,11.5,-,N/A,Rain,Light Rain,190,2012-03-28 22:20:00
3:23 PM,50.0,42.8,76,29.79,10.0,SSW,9.2,-,N/A,,Overcast,200,2012-03-28 22:23:00
3:31 PM,50.0,42.8,76,29.79,10.0,SSW,10.4,-,N/A,Rain,Light Rain,210,2012-03-28 22:31:00
3:37 PM,48.2,42.8,82,29.79,10.0,SSW,6.9,-,N/A,Rain,Light Rain,200,2012-03-28 22:37:00
3:38 PM,48.2,42.8,82,29.79,10.0,SSW,6.9,-,N/A,Rain,Light Rain,210,2012-03-28 22:38:00
3:41 PM,50.0,42.8,76,29.79,10.0,SSW,8.1,-,N/A,,Overcast,200,2012-03-28 22:41:00
3:54 PM,50.0,42.8,76,29.79,10.0,WSW,5.8,-,N/A,,Overcast,240,2012-03-28 22:54:00
3:55 PM,49.5,43.2,79,29.79,10.0,SW,6.9,-,0.00,,Overcast,230,2012-03-28 22:55:00
3:56 PM,50.0,42.8,76,29.79,10.0,SSW,6.9,-,N/A,Rain,Light Rain,210,2012-03-28 22:56:00
3:57 PM,50.0,42.8,76,29.80,10.0,SSW,8.1,-,N/A,Rain,Light Rain,210,2012-03-28 22:57:00
4:04 PM,48.2,41.0,76,29.80,10.0,SSW,17.3,26.5,N/A,Rain,Light Rain,210,2012-03-28 23:04:00
4:40 PM,48.2,42.8,82,29.80,10.0,South,19.6,24.2,N/A,,Overcast,170,2012-03-28 23:40:00
4:41 PM,46.4,42.8,87,29.80,10.0,South,20.7,-,N/A,Rain,Light Rain,180,2012-03-28 23:41:00
4:55 PM,46.4,43.2,88,29.80,10.0,South,11.5,-,0.03,Rain,Light Rain,190,2012-03-28 23:55:00
4:58 PM,46.4,42.8,87,29.80,10.0,South,10.4,-,N/A,,Overcast,190,2012-03-28 23:58:00
5:55 PM,48.4,43.7,84,29.80,10.0,South,12.7,-,0.00,,Mostly Cloudy,190,2012-03-29 00:55:00
6:06 PM,48.2,42.8,82,29.81,10.0,South,19.6,-,N/A,Rain,Light Rain,190,2012-03-29 01:06:00
6:52 PM,44.6,39.2,81,29.82,10.0,South,16.1,27.6,N/A,,Mostly Cloudy,190,2012-03-29 01:52:00
6:55 PM,44.4,39.2,82,29.82,10.0,South,11.5,27.6,0.02,,Scattered Clouds,190,2012-03-29 01:55:00
7:55 PM,43.3,41.0,91,29.81,10.0,South,6.9,-,N/A,,Mostly Cloudy,170,2012-03-29 02:55:00
8:55 PM,44.8,39.4,81,29.78,10.0,SSE,8.1,-,N/A,,Clear,150,2012-03-29 03:55:00
9:55 PM,45.9,38.8,76,29.75,10.0,SSE,10.4,-,N/A,,Mostly Cloudy,160,2012-03-29 04:55:00
10:55 PM,45.7,39.2,78,29.72,10.0,SSE,13.8,-,N/A,,Partly Cloudy,160,2012-03-29 05:55:00
11:55 PM,46.2,39.0,76,29.69,10.0,SSE,16.1,-,N/A,,Scattered Clouds,160,2012-03-29 06:55:00